User: anonymous   Login
Location: Fluertsh�userhof
(48.7537°N, 10.3850°E)
Time: 01:21:16
(UTC+00:00)
Language:

Cosmos 1626 - Orbit

View from above orbital plane
View from above orbital plane
View from above satellite
View from above satellite

Ground track
Ground track

The orbit data is extracted from the following two-line orbital elements,

1 15494U 85009A   21136.38945598  .00001061  00000-0  41326-4 0  9997
2 15494  82.4794 257.1421 0003838  88.2792 271.8885 15.24864846986100
Epoch (UTC): 16 May 2021 09:20:48
Eccentricity: 0.0003838
inclination: 82.4794°
perigee height: 488 km
apogee height: 494 km
right ascension of ascending node: 257.1421°
argument of perigee: 88.2792°
revolutions per day: 15.24864846
mean anomaly at epoch: 271.8885°
orbit number at epoch: 98610

The dashed part of the orbit path shows where the satellite is in the earth's shadow,  

DLR